Flag for Iceland Weather past 2 weeks in Reykjavik, Iceland

Now
37 °F

Scattered showers. Broken clouds.


Feels Like: 28 °F
Forecast: N/A
Wind: 17 mph from Southwest

Location: Reykjavik Airport


UV Index: N/A

Visibility: N/A


Pressure: 29.89 "Hg

Humidity: 70%

Dew point: 28 °F

Location of ReykjavikLocation

Historic Weather in Reykjavik

°F

Reykjavik temperature yesterday

Maximum temperature yesterday: 41 °F (at 5:00 PM)
Minimum temperature yesterday: 32 °F (at 12:00 AM)
Average temperature yesterday: 35 °F

Past Weeks' High & Low Weather Summary

 TemperatureHumidityPressure
High50 °F (Apr 6, 2:00 PM)100% (Apr 7, 9:00 AM)29.92 "Hg (Apr 7, 9:00 AM)
Low27 °F (Apr 17, 3:00 AM)56% (Apr 17, 11:00 AM)28.77 "Hg (Apr 11, 7:00 PM)
Average38 °F79%29.46 "Hg
* Reported Apr 5 6:00 PM — Apr 20 6:00 PM, Reykjavik, Weather by CustomWeather, © 2014

Note: Actual official high and low records may vary slightly from our data, if they occured in-between our weather recording intervals... More about our weather records

Advertising

Historic Weather Conditions — Data for Previous 24 hours

 ConditionsComfort  
Time TempWeatherWind HumidityBarometerVisibility
6:00 PM
Apr 20
37 °FScattered showers. Broken clouds.17 mph70%29.89 "HgN/A
5:00 PM37 °FPartly sunny.17 mph75%29.89 "HgN/A
4:00 PM39 °FScattered showers. Scattered clouds.21 mph65%29.86 "HgN/A
3:00 PM39 °FScattered showers. Passing clouds.23 mph75%29.86 "HgN/A
2:00 PM39 °FPartly sunny.23 mph61%29.86 "HgN/A
1:00 PM39 °FScattered showers. Scattered clouds.29 mph70%29.83 "HgN/A
12:00 PM39 °FScattered showers. Scattered clouds.31 mph81%29.83 "HgN/A
11:00 AM37 °FPassing clouds.23 mph81%29.80 "HgN/A
10:00 AM34 °FHail. Broken clouds.24 mph87%29.83 "Hg1 mi
9:00 AM37 °FScattered showers. Passing clouds.21 mph75%29.80 "HgN/A
8:00 AM36 °FScattered clouds.14 mph87%29.80 "HgN/A
7:00 AM36 °FPartly sunny.12 mph87%29.80 "HgN/A
6:00 AM34 °FBroken clouds.14 mph93%29.80 "HgN/A
5:00 AM36 °FPartly cloudy.12 mph87%29.80 "HgN/A
4:00 AM36 °FPassing clouds.10 mph93%29.80 "HgN/A
3:00 AM36 °FPartly cloudy.16 mph87%29.80 "HgN/A
2:00 AM36 °FPartly cloudy.17 mph87%29.80 "HgN/A
1:00 AM36 °FRain. Mostly cloudy.22 mph87%29.83 "HgN/A
12:00 AM34 °FSprinkles. Mostly cloudy.14 mph93%29.83 "HgN/A
11:00 PM
Apr 19
36 °FPartly cloudy.20 mph87%29.83 "HgN/A
10:00 PM34 °FSnow flurries. Partly cloudy.20 mph87%29.86 "Hg4 mi
9:00 PM37 °FScattered showers. Partly sunny.18 mph75%29.86 "HgN/A
8:00 PM36 °FSprinkles. Broken clouds.16 mph87%29.89 "HgN/A
7:00 PM37 °FBroken clouds.14 mph81%29.89 "HgN/A
Weather by CustomWeather, © 2014

See weather overview